Вернуться в каталог

STARLINK-35638

АктивенСвязьVLEO
NORAD 66169·PAYLOAD·🇺🇸 United States

Запущен Oct 25, 2025 с Cape Canaveral Space Force Station

Loading…

Ближайшие Пролёты (ближайшие 24 часа)

TLE

СвежийSource: CelesTrak SupGP

Эпоха: Sep 14, 2026, 20:54 UTC

1 66169C 25240Z   26257.87131944  .00053739  00000+0  15881-2 0  2578
2 66169  53.1580 261.8896 0001273  91.9035 273.0774 15.34357207    10

Отслеживайте STARLINK-35638 в реальном времени с AllMySat

Download on the App Store